Terug naar catalogus

KUIPER-00181

ActiefCommunicatieLEO
NORAD 67137·PAYLOAD·🇺🇸 United States

Gelanceerd Dec 15, 2025 vanaf Cape Canaveral Space Force Station

Loading…

Volgende Passages (komende 24 uur)

TLE

VersSource: CelesTrak SupGP

Epoch: Sep 14, 2026, 14:02 UTC

1 67137C 25301E   26257.58518519  .00006109  00000+0  79991-3 0  2579
2 67137  51.9025 322.8468 0000305  69.6196  63.4286 14.79915673    18

Volg KUIPER-00181 in realtime met AllMySat

Download on the App Store